Location: Pine Mountain Observatory
(43.7910°N, 120.9377°W)
Time: 13:33:54
(UTC-08:00)

Cosmos 1867 - Visible Passes

Search period start: 30 January 2015 00:00
Search period end: 09 February 2015 00:00
Orbit: 778 x 798 km, 65.0° (Epoch: 29 January)

Date Brightness Start Highest point End Pass type
(mag) Time Alt. Az. Time Alt. Az. Time Alt. Az.
30 Jan 5.9 04:49:45 12° N 04:49:45 12° N 04:50:37 10° N visible
31 Jan 6.1 04:19:03 11° N 04:19:03 11° N 04:19:18 10° N visible
06 Feb 6.0 06:21:09 10° N 06:22:13 11° NNE 06:23:25 10° NNE visible
